Regional Weather Roundup
Issued by NWS

Home | Current Version | Previous Version | Text Only | Print | Product List | Glossary On
Versions: 1 2 3 4 5 6 7 8 9 10 11 12 13 14 15 16 17 18 19 20 21 22 23 24 25 26 27 28 29 30 31 32 33 34 35 36 37 38 39 40 41 42 43 44 45 46 47 48 49 50
000
ASUS43 KLSX 160357
RWRMO

WEATHER SUMMARY FOR MISSOURI
NATIONAL WEATHER SERVICE SPRINGFIELD MO
1000 PM CST FRI DEC 15 2017

NOTE: "FAIR" INDICATES FEW OR NO CLOUDS BELOW 12,000 FEET WITH NO
       SIGNIFICANT WEATHER AND/OR OBSTRUCTIONS TO VISIBILITY.
       CURRENT SKY AND/OR WEATHER CONDITIONS ARE NOT AVAILABLE FOR
       CHILLICOTHE AND FARMINGTON.

MOZ001>031-035>038-043-044-053-054-160500-
...NORTHERN AND WESTERN MISSOURI...

CITY           SKY/WX    TMP DP  RH WIND       PRES   REMARKS
KANSAS CTY INT CLEAR     40  25  55 SW17      29.91F
LEE`S SUMMIT   CLEAR     41  25  53 MISG      29.95F
ST JOSEPH      CLEAR     41  27  57 SW14      29.88F
CHILLICOTHE      N/A     37  22  54 S10       29.91F WCI  30

$$
MOZ066>068-077>081-088>096-101>105-160500-
...SOUTHWEST MISSOURI...

CITY           SKY/WX    TMP DP  RH WIND       PRES   REMARKS
SPRINGFIELD    CLEAR     32  24  72 S9        30.06F WCI  24
JOPLIN         CLEAR     38  27  64 S14       30.07F WCI  30

$$
MOZ032>034-039>042-045>050-055>058-069>072-160500-
...CENTRAL MISSOURI...

CITY           SKY/WX    TMP DP  RH WIND       PRES   REMARKS
COLUMBIA       NOT AVBL
JEFFERSON CITY CLEAR     36  25  64 E5        30.04S
ROLLA          CLEAR     32  25  75 SW10      30.05S WCI  24
SEDALIA        CLEAR     37  26  64 S9        30.00F
WARRENSBURG    PTCLDY    37  25  60 S9        29.98F

$$
MOZ051-052-059>065-160500-
...EAST CENTRAL MISSOURI...

CITY           SKY/WX    TMP DP  RH WIND       PRES   REMARKS
ST LOUIS INTL  CLEAR     36  25  64 SW9       30.05S WCI  29

$$
MOZ072>076-082>087-097>100-106>115-160500-
...SOUTH CENTRAL AND SOUTHEAST MISSOURI...

CITY           SKY/WX    TMP DP  RH WIND       PRES   REMARKS
CAPE GIRARDEAU PTCLDY    32  26  78 SW6       30.12S WCI  26
POPLAR BLUFF   CLEAR     34  28  79 SW5       30.13S WCI  30
WEST PLAINS    CLEAR     34  24  67 SW5       30.11R WCI  30

$$


USA.gov is the U.S. government's official web portal to all federal, state and local government web resources and services.